GW4439 Weather Reports


time (UTC)temp
C
wind
direction
speed
KPH
gust
KPH
rain 1hr
cm
rain 24hr
cm
rain mn
cm
humidity
%
barometer
mb
20260509024318 15 262 0.0 0.0 0.00 0.00 0.00 91 1014.8
20260509023816 15 264 0.0 0.0 0.00 0.00 0.00 91 1014.7
20260509023313 15 263 0.0 0.0 0.00 0.00 0.00 91 1014.8
20260509022809 15 263 0.0 0.0 0.00 0.00 0.00 91 1014.6
20260509022307 15 264 0.0 0.0 0.00 0.00 0.00 90 1014.8
20260509021803 15 264 0.0 0.0 0.00 0.00 0.00 90 1014.7
20260509021300 15 263 0.0 0.0 0.00 0.00 0.00 90 1014.7
20260509020758 15 264 0.0 0.0 0.00 0.00 0.00 89 1014.8
20260509020256 15 264 0.0 0.0 0.00 0.00 0.00 89 1015.0
20260509015753 15 263 0.0 0.0 0.00 0.00 0.00 89 1014.7
20260509015251 15 264 0.0 0.0 0.00 0.00 0.00 88 1015.0
20260509014747 15 264 0.0 0.0 0.00 0.00 0.00 88 1014.8
20260509014245 15 263 0.0 0.0 0.00 0.00 0.00 87 1014.9
20260509013741 15 268 0.0 0.0 0.00 0.00 0.00 86 1014.8
20260509013237 16 259 0.0 0.0 0.00 0.00 0.00 85 1014.6
20260509012734 16 249 0.0 0.0 0.00 0.00 0.00 84 1014.8
20260509012230 16 153 0.0 0.0 0.00 0.00 0.00 85 1014.6
20260509011728 16 258 0.0 0.0 0.00 0.00 0.00 85 1014.6
20260509011225 16 258 0.0 0.0 0.00 0.00 0.00 84 1014.4
20260509010723 16 223 0.0 0.0 0.00 0.00 0.00 83 1014.3
20260509010219 16 203 0.0 0.0 0.00 0.00 0.00 84 1014.3
20260509005717 16 261 0.0 0.0 0.00 0.00 0.00 83 1014.3
20260509005214 16 261 0.0 0.0 0.00 0.00 0.00 82 1014.3
20260509004713 16 261 0.0 0.0 0.00 0.00 0.00 81 1014.2
20260509004211 16 261 0.0 0.0 0.00 0.00 0.00 81 1014.3
20260509003709 16 261 0.0 0.0 0.00 0.00 0.00 81 1014.4
20260509003206 16 261 0.0 0.0 0.00 0.00 0.00 81 1014.3
20260509002704 16 261 0.0 0.0 0.00 0.00 0.00 81 1014.5
20260509002201 17 261 0.0 0.0 0.00 0.00 0.00 80 1014.4
20260509001658 17 261 0.0 0.0 0.00 0.00 0.00 77 1014.4
20260509001154 17 261 0.0 0.0 0.00 0.00 0.00 76 1014.4
20260509000652 17 262 0.0 0.0 0.00 0.00 0.00 77 1014.2
20260509000149 17 261 0.0 0.0 0.00 0.00 0.00 77 1014.2
20260508235646 17 261 0.0 0.0 0.00 0.00 0.00 75 1014.2
20260508235142 17 262 0.0 0.0 0.00 0.00 0.00 74 1014.2
20260508234641 17 262 0.0 0.0 0.00 0.00 0.00 74 1014.1
20260508234137 17 263 0.0 0.0 0.00 0.00 0.00 74 1014.0
20260508233636 18 262 0.0 0.0 0.00 0.00 0.00 73 1014.1
20260508233133 18 258 0.0 0.0 0.00 0.00 0.00 72 1014.0
20260508232630 20 257 0.0 0.0 0.00 0.00 0.00 68 1014.0
20260508232128 20 253 0.0 0.0 0.00 0.00 0.00 63 1014.0
20260508231625 20 240 1.6 1.6 0.00 0.00 0.00 60 1014.2
20260508231121 20 225 3.2 4.8 0.00 0.00 0.00 59 1014.3
20260508230618 20 212 1.6 3.2 0.00 0.00 0.00 57 1014.1
20260508230114 20 204 3.2 4.8 0.00 0.00 0.00 58 1013.9
20260508225613 20 230 3.2 3.2 0.00 0.00 0.00 57 1014.1
20260508225108 20 232 1.6 1.6 0.00 0.00 0.00 56 1014.1
20260508224607 20 204 3.2 4.8 0.00 0.00 0.00 55 1014.1
20260508224103 20 210 3.2 3.2 0.00 0.00 0.00 56 1014.2
20260508223601 20 227 3.2 3.2 0.00 0.00 0.00 56 1014.1
20260508223058 20 220 3.2 3.2 0.00 0.00 0.00 57 1014.1
20260508222555 21 228 3.2 3.2 0.00 0.00 0.00 54 1014.2
20260508222052 20 235 1.6 1.6 0.00 0.00 0.00 55 1014.1
20260508221549 21 219 3.2 4.8 0.00 0.00 0.00 54 1014.2
20260508221044 20 220 3.2 3.2 0.00 0.00 0.00 54 1014.0
20260508220541 20 188 6.4 6.4 0.00 0.00 0.00 54 1014.1
20260508220038 21 191 3.2 3.2 0.00 0.00 0.00 53 1014.1
20260508215535 21 174 3.2 3.2 0.00 0.00 0.00 53 1014.0
20260508215031 21 170 4.8 4.8 0.00 0.00 0.00 52 1013.8
20260508214529 21 158 3.2 3.2 0.00 0.00 0.00 52 1014.2
20260508214025 21 206 4.8 6.4 0.00 0.00 0.00 52 1014.0
20260508213523 21 228 6.4 6.4 0.00 0.00 0.00 50 1014.2
20260508213018 21 188 4.8 6.4 0.00 0.00 0.00 51 1014.1
20260508212515 21 188 4.8 6.4 0.00 0.00 0.00 51 1014.1
20260508212011 21 239 6.4 6.4 0.00 0.00 0.00 49 1014.3
20260508211507 21 243 4.8 4.8 0.00 0.00 0.00 52 1014.2
20260508211003 21 274 4.8 4.8 0.00 0.00 0.00 49 1014.1
20260508210500 21 266 1.6 1.6 0.00 0.00 0.00 49 1014.2
20260508205956 21 244 6.4 6.4 0.00 0.00 0.00 49 1014.1
20260508205454 21 256 3.2 4.8 0.00 0.00 0.00 49 1014.2
20260508204950 21 255 3.2 4.8 0.00 0.00 0.00 49 1014.3
20260508204448 22 262 4.8 4.8 0.00 0.00 0.00 47 1014.2
20260508203942 21 243 8.0 9.7 0.00 0.00 0.00 47 1014.3
20260508203439 21 221 6.4 6.4 0.00 0.00 0.00 46 1014.4
20260508202935 22 259 4.8 6.4 0.00 0.00 0.00 44 1014.4
20260508202433 22 216 6.4 9.7 0.00 0.00 0.00 44 1014.5
20260508201929 22 247 4.8 6.4 0.00 0.00 0.00 47 1014.4
20260508201426 21 236 4.8 4.8 0.00 0.00 0.00 44 1014.6
20260508200923 21 283 4.8 6.4 0.00 0.00 0.00 45 1014.8
20260508200420 22 262 11.3 12.9 0.00 0.00 0.00 45 1014.7
20260508195916 22 260 6.4 6.4 0.00 0.00 0.00 45 1014.8
20260508195413 22 222 9.7 11.3 0.00 0.00 0.00 44 1014.7
20260508194909 22 168 4.8 9.7 0.00 0.00 0.00 44 1014.8
20260508194406 22 188 6.4 6.4 0.00 0.00 0.00 45 1015.0
20260508193903 22 149 3.2 4.8 0.00 0.00 0.00 45 1014.8
20260508193359 21 285 1.6 3.2 0.00 0.00 0.00 46 1014.9
20260508192855 21 224 4.8 4.8 0.00 0.00 0.00 47 1015.1
20260508192352 21 229 8.0 9.7 0.00 0.00 0.00 49 1015.3
20260508191850 22 237 6.4 6.4 0.00 0.00 0.00 47 1015.3
20260508191347 22 153 6.4 11.3 0.00 0.00 0.00 47 1015.4
20260508190844 22 268 4.8 6.4 0.00 0.00 0.00 48 1015.2
20260508190340 22 256 3.2 4.8 0.00 0.00 0.00 45 1015.3
20260508185837 22 279 4.8 4.8 0.00 0.00 0.00 45 1015.4
20260508185334 22 197 4.8 6.4 0.00 0.00 0.00 45 1015.6
20260508184831 21 237 6.4 6.4 0.00 0.00 0.00 46 1015.7
20260508184329 21 345 1.6 3.2 0.00 0.00 0.00 44 1015.6
20260508183825 22 222 3.2 4.8 0.00 0.00 0.00 43 1016.0
20260508183322 21 179 4.8 4.8 0.00 0.00 0.00 43 1016.1
20260508182817 21 259 1.6 1.6 0.00 0.00 0.00 45 1015.9
20260508182315 22 156 6.4 6.4 0.00 0.00 0.00 44 1016.0
20260508181810 22 184 3.2 4.8 0.00 0.00 0.00 45 1015.9
20260508181308 21 212 1.6 3.2 0.00 0.00 0.00 46 1016.1
20260508180804 21 276 4.8 4.8 0.00 0.00 0.00 47 1016.1
20260508180302 21 226 1.6 1.6 0.00 0.00 0.00 51 1016.3
20260508175758 21 226 8.0 11.3 0.00 0.00 0.00 47 1016.3
20260508175254 21 197 6.4 11.3 0.00 0.00 0.00 45 1016.5
20260508174752 21 76 3.2 3.2 0.00 0.00 0.00 49 1016.5
20260508174250 21 226 4.8 4.8 0.00 0.00 0.00 46 1016.5
20260508173746 20 23 3.2 3.2 0.00 0.00 0.00 47 1016.4
20260508173242 20 98 8.0 9.7 0.00 0.00 0.00 48 1016.7
20260508172738 21 81 6.4 9.7 0.00 0.00 0.00 50 1016.4
20260508172236 21 160 6.4 6.4 0.00 0.00 0.00 47 1016.5
20260508171732 20 324 3.2 4.8 0.00 0.00 0.00 50 1016.7
20260508171228 20 162 3.2 3.2 0.00 0.00 0.00 47 1016.8
20260508170725 21 219 9.7 12.9 0.00 0.00 0.00 47 1016.8
20260508170223 20 257 4.8 6.4 0.00 0.00 0.00 46 1017.2
20260508165720 21 231 1.6 3.2 0.00 0.00 0.00 50 1017.1
20260508165217 20 211 3.2 3.2 0.00 0.00 0.00 48 1017.2
20260508164714 20 80 3.2 3.2 0.00 0.00 0.00 50 1017.4
20260508164210 20 132 4.8 6.4 0.00 0.00 0.00 47 1017.3
20260508163708 20 235 3.2 4.8 0.00 0.00 0.00 49 1017.5
20260508163205 20 256 1.6 3.2 0.00 0.00 0.00 51 1017.7
20260508162700 20 230 11.3 12.9 0.00 0.00 0.00 49 1017.5
20260508162158 20 128 3.2 4.8 0.00 0.00 0.00 49 1017.5
20260508161655 20 75 3.2 6.4 0.00 0.00 0.00 52 1017.7
20260508161152 20 92 9.7 14.5 0.00 0.00 0.00 54 1017.6
20260508160651 19 306 1.6 1.6 0.00 0.00 0.00 56 1017.6
20260508160148 19 233 1.6 3.2 0.00 0.00 0.00 52 1017.7
20260508155645 18 151 8.0 11.3 0.00 0.00 0.00 51 1017.8
20260508155142 19 178 4.8 6.4 0.00 0.00 0.00 51 1018.0
20260508154639 18 75 11.3 12.9 0.00 0.00 0.00 52 1017.9
20260508154135 19 144 6.4 9.7 0.00 0.00 0.00 51 1018.3
20260508153632 19 87 3.2 3.2 0.00 0.00 0.00 52 1018.3
20260508153129 18 106 8.0 9.7 0.00 0.00 0.00 52 1018.3
20260508152626 19 169 4.8 4.8 0.00 0.00 0.00 50 1018.3
20260508152121 19 178 6.4 6.4 0.00 0.00 0.00 50 1018.3
20260508151618 18 77 3.2 4.8 0.00 0.00 0.00 55 1018.3
20260508151115 18 103 14.5 16.1 0.00 0.00 0.00 53 1018.3
20260508150612 18 108 9.7 12.9 0.00 0.00 0.00 53 1018.3
20260508150108 18 143 4.8 6.4 0.00 0.00 0.00 51 1018.2
20260508145605 18 194 4.8 6.4 0.00 0.00 0.00 53 1017.9
20260508145101 17 105 4.8 9.7 0.00 0.00 0.00 60 1017.7
20260508144559 17 90 6.4 6.4 0.00 0.00 0.00 58 1017.8
20260508144056 17 80 4.8 9.7 0.00 0.00 0.00 60 1017.8
20260508143553 17 87 4.8 4.8 0.00 0.00 0.00 58 1018.0
20260508143050 17 179 3.2 4.8 0.00 0.00 0.00 62 1018.0
20260508142547 17 87 9.7 12.9 0.00 0.00 0.00 64 1018.3
20260508142044 17 149 3.2 6.4 0.00 0.00 0.00 63 1018.3
20260508141540 17 78 11.3 12.9 0.00 0.00 0.00 72 1018.3
20260508141038 17 75 4.8 4.8 0.00 0.00 0.00 70 1018.2
20260508140535 17 89 4.8 6.4 0.00 0.00 0.00 74 1018.3
20260508140031 17 182 0.0 1.6 0.00 0.00 0.00 73 1018.4
20260508135527 16 36 3.2 3.2 0.00 0.00 0.00 74 1018.2
20260508135024 16 66 4.8 4.8 0.00 0.00 0.00 74 1018.4
20260508134520 16 121 6.4 6.4 0.00 0.00 0.00 76 1018.4
20260508134017 16 233 1.6 1.6 0.00 0.00 0.00 80 1018.3
20260508133514 15 100 3.2 4.8 0.00 0.00 0.00 82 1018.3
20260508133011 15 81 6.4 6.4 0.00 0.00 0.00 83 1018.5
20260508132510 16 51 1.6 3.2 0.00 0.00 0.00 82 1018.0
20260508132006 15 63 3.2 3.2 0.00 0.00 0.00 81 1017.9
20260508131500 15 273 1.6 1.6 0.00 0.00 0.00 80 1018.2
20260508130958 15 248 0.0 0.0 0.00 0.00 0.00 83 1017.9
20260508130455 14 26 3.2 3.2 0.00 0.00 0.00 81 1018.0
20260508125950 14 54 4.8 4.8 0.00 0.00 0.00 82 1017.8
20260508125447 13 66 6.4 6.4 0.00 0.00 0.00 83 1017.7
20260508124945 13 258 0.0 0.0 0.00 0.00 0.00 87 1017.7
20260508124442 13 259 0.0 0.0 0.00 0.00 0.00 90 1017.7
20260508123940 12 293 3.2 3.2 0.00 0.00 0.00 93 1017.5
20260508123438 12 271 0.0 0.0 0.00 0.00 0.00 95 1017.4
20260508122934 12 263 0.0 0.0 0.00 0.00 0.00 96 1017.5
20260508122431 12 280 0.0 0.0 0.00 0.00 0.00 97 1017.6
20260508121928 11 259 0.0 0.0 0.00 0.00 0.00 97 1017.3
20260508121427 11 267 0.0 0.0 0.00 0.00 0.00 98 1017.3
20260508120924 11 275 0.0 0.0 0.00 0.00 0.00 98 1017.3
20260508120421 11 269 0.0 0.0 0.00 0.00 0.00 98 1017.1
20260508115919 11 264 0.0 0.0 0.00 0.00 0.00 98 1017.2
20260508115418 10 263 0.0 0.0 0.00 0.00 0.00 98 1017.3
20260508114913 10 271 0.0 0.0 0.00 0.00 0.00 98 1016.9
20260508114410 10 257 0.0 0.0 0.00 0.00 0.00 98 1017.0
20260508113906 10 263 0.0 0.0 0.00 0.00 0.00 98 1017.1
20260508113404 10 263 0.0 0.0 0.00 0.00 0.00 98 1016.9
20260508112901 10 262 0.0 0.0 0.00 0.00 0.00 98 1016.7
20260508112358 10 262 0.0 0.0 0.00 0.00 0.00 99 1016.6
20260508111855 9 262 0.0 0.0 0.00 0.00 0.00 98 1016.3
20260508111352 9 262 0.0 0.0 0.00 0.00 0.00 98 1016.2
20260508110849 9 271 0.0 0.0 0.00 0.00 0.00 99 1016.1
20260508110347 9 271 0.0 0.0 0.00 0.00 0.00 98 1016.0
20260508105846 8 271 0.0 0.0 0.00 0.00 0.00 98 1016.1
20260508105343 8 272 0.0 0.0 0.00 0.00 0.00 98 1015.9
20260508104840 8 273 0.0 0.0 0.00 0.00 0.00 98 1016.0
20260508104337 9 268 0.0 0.0 0.00 0.00 0.00 98 1015.9
20260508103835 8 266 0.0 0.0 0.00 0.00 0.00 98 1015.9
20260508103331 8 266 0.0 0.0 0.00 0.00 0.00 98 1015.8
20260508102829 8 265 0.0 0.0 0.00 0.00 0.00 98 1015.7
20260508102327 8 265 0.0 0.0 0.00 0.00 0.00 98 1015.4
20260508101824 8 265 0.0 0.0 0.00 0.00 0.00 98 1015.6
20260508101321 9 265 0.0 0.0 0.00 0.00 0.00 98 1015.7
20260508100818 9 270 0.0 0.0 0.00 0.00 0.00 98 1015.3
20260508100317 9 266 0.0 0.0 0.00 0.00 0.00 98 1015.1
20260508095812 9 266 0.0 0.0 0.00 0.00 0.00 98 1015.1
20260508095310 9 266 0.0 0.0 0.00 0.00 0.00 98 1015.0
20260508094807 9 266 0.0 0.0 0.00 0.00 0.00 98 1015.1
20260508094304 9 268 0.0 0.0 0.00 0.00 0.00 98 1015.0
20260508093801 9 266 0.0 0.0 0.00 0.00 0.00 98 1015.1
20260508093258 9 265 0.0 0.0 0.00 0.00 0.00 98 1015.0
20260508092755 9 266 0.0 0.0 0.00 0.00 0.00 98 1015.2
20260508092253 10 265 0.0 0.0 0.00 0.00 0.00 98 1015.0
20260508091751 9 265 0.0 0.0 0.00 0.00 0.00 97 1014.9
20260508091247 9 265 0.0 0.0 0.00 0.00 0.00 97 1015.0
20260508090745 9 265 0.0 0.0 0.00 0.00 0.00 97 1014.7
20260508090243 9 273 0.0 0.0 0.00 0.00 0.00 97 1014.9
20260508085738 9 273 0.0 0.0 0.00 0.00 0.00 97 1014.8
20260508085236 9 274 0.0 0.0 0.00 0.00 0.00 97 1014.5
20260508084732 10 275 0.0 0.0 0.00 0.00 0.00 97 1014.5
20260508084230 10 274 0.0 0.0 0.00 0.00 0.00 97 1014.7
20260508083727 10 274 0.0 0.0 0.00 0.00 0.00 97 1014.6
20260508083225 10 274 0.0 0.0 0.00 0.00 0.00 97 1014.9
20260508082719 10 275 0.0 0.0 0.00 0.00 0.00 97 1014.7
20260508082217 10 275 0.0 0.0 0.00 0.00 0.00 97 1014.9
20260508081714 10 269 0.0 0.0 0.00 0.00 0.00 96 1014.6
20260508081210 10 269 0.0 0.0 0.00 0.00 0.00 96 1014.5
20260508080708 10 271 0.0 0.0 0.00 0.00 0.00 96 1014.5
20260508080206 10 271 0.0 0.0 0.00 0.00 0.00 96 1014.7
20260508075702 10 271 0.0 0.0 0.00 0.00 0.00 96 1014.6
20260508075159 10 271 0.0 0.0 0.00 0.00 0.00 95 1014.4
20260508074657 10 271 0.0 0.0 0.00 0.00 0.00 95 1014.6
20260508074154 10 271 0.0 0.0 0.00 0.00 0.00 95 1014.6
20260508073651 10 271 0.0 0.0 0.00 0.00 0.00 95 1014.6
20260508073149 10 272 0.0 0.0 0.00 0.00 0.00 95 1014.5
20260508072644 10 271 0.0 0.0 0.00 0.00 0.00 94 1014.5
20260508072141 10 272 0.0 0.0 0.00 0.00 0.00 94 1014.6
20260508071639 11 273 0.0 0.0 0.00 0.00 0.00 93 1014.7
20260508071137 11 265 0.0 0.0 0.00 0.00 0.00 93 1014.6
20260508070634 11 265 0.0 0.0 0.00 0.00 0.00 93 1014.3
20260508070133 11 265 0.0 0.0 0.00 0.00 0.00 92 1014.4
20260508065630 11 265 0.0 0.0 0.00 0.00 0.00 92 1014.3
20260508065127 11 265 0.0 0.0 0.00 0.00 0.00 92 1014.5
20260508064625 11 265 0.0 0.0 0.00 0.00 0.00 91 1014.4
20260508064123 11 272 0.0 0.0 0.00 0.00 0.00 90 1014.4
20260508063620 12 265 0.0 0.0 0.00 0.00 0.00 88 1014.2
20260508063119 12 274 0.0 0.0 0.00 0.00 0.00 88 1014.2
20260508062616 12 275 0.0 0.0 0.00 0.00 0.00 88 1014.0
20260508062112 12 275 0.0 0.0 0.00 0.00 0.00 89 1014.1
20260508061609 12 264 0.0 0.0 0.00 0.00 0.00 89 1014.2
20260508061107 12 264 0.0 0.0 0.00 0.00 0.00 89 1014.2
20260508060603 12 264 0.0 0.0 0.00 0.00 0.00 89 1014.2
20260508060100 12 265 0.0 0.0 0.00 0.00 0.00 89 1014.2
20260508055556 12 263 0.0 0.0 0.00 0.00 0.00 88 1014.3
20260508055053 12 263 0.0 0.0 0.00 0.00 0.00 87 1014.4
20260508054549 13 263 0.0 0.0 0.00 0.00 0.00 87 1014.5
20260508054047 12 263 0.0 0.0 0.00 0.00 0.00 87 1014.4
20260508053543 13 276 0.0 0.0 0.00 0.00 0.00 87 1014.4
20260508053042 13 279 0.0 0.0 0.00 0.00 0.00 87 1014.5
20260508052539 13 276 0.0 0.0 0.00 0.00 0.00 84 1014.4
20260508052035 13 253 0.0 0.0 0.00 0.00 0.00 80 1014.5
20260508051532 13 274 0.0 0.0 0.00 0.00 0.00 82 1014.5
20260508051027 13 264 0.0 0.0 0.00 0.00 0.00 81 1014.5
20260508050524 13 267 0.0 0.0 0.00 0.00 0.00 81 1014.4
20260508050021 13 265 0.0 0.0 0.00 0.00 0.00 81 1014.4
20260508045517 13 264 0.0 0.0 0.00 0.00 0.00 81 1014.2
20260508045015 13 264 0.0 0.0 0.00 0.00 0.00 81 1014.2
20260508044512 13 264 0.0 0.0 0.00 0.00 0.00 81 1014.1
20260508044008 14 264 0.0 0.0 0.00 0.00 0.00 79 1014.2
20260508043505 14 264 0.0 0.0 0.00 0.00 0.00 77 1014.1
20260508043001 14 274 0.0 0.0 0.00 0.00 0.00 76 1014.1
20260508042459 14 286 0.0 0.0 0.00 0.00 0.00 80 1014.0
20260508041956 14 263 0.0 1.6 0.00 0.00 0.00 79 1014.2
20260508041452 15 263 0.0 0.0 0.00 0.00 0.00 75 1014.0
20260508040949 15 263 0.0 0.0 0.00 0.00 0.00 74 1014.0
20260508040446 15 261 1.6 1.6 0.00 0.00 0.00 72 1013.8
20260508035944 15 315 1.6 1.6 0.00 2.97 2.97 73 1013.8
20260508035440 15 268 0.0 0.0 0.00 2.97 2.97 73 1014.1
20260508034937 15 254 0.0 0.0 0.00 2.97 2.97 73 1013.8
20260508034435 15 283 1.6 1.6 0.00 2.97 2.97 72 1013.9
20260508033931 15 272 0.0 0.0 0.00 2.97 2.97 72 1013.9
20260508033430 16 267 0.0 0.0 0.00 2.97 2.97 72 1013.9
20260508032926 16 299 1.6 1.6 0.00 2.97 2.97 72 1013.8
20260508032424 16 288 1.6 1.6 0.00 2.97 2.97 72 1014.0
20260508031920 16 264 0.0 0.0 0.00 2.97 2.97 72 1013.8
20260508031418 16 326 3.2 3.2 0.00 2.97 2.97 71 1013.8
20260508030913 16 277 0.0 0.0 0.00 2.97 2.97 71 1013.7
20260508030411 16 26 1.6 3.2 0.00 2.97 2.97 71 1013.7
20260508025908 16 309 0.0 0.0 0.00 2.97 2.97 71 1013.7
20260508025404 17 266 1.6 1.6 0.00 2.97 2.97 70 1013.7
20260508024901 17 277 3.2 3.2 0.00 2.97 2.97 71 1013.5